Regional Weather Roundup
Issued by NWS Goodland, KS

Home | Current Version | Previous Version | Text Only | Print | Product List | Glossary Off
Versions: 1 2 3 4 5 6 7 8 9 10 11 12 13 14 15 16 17 18 19 20 21 22 23 24 25 26 27 28 29 30 31 32 33 34 35 36 37 38 39 40 41 42 43 44 45 46 47 48 49 50

000
ASUS43 KGLD 020359
RWRGLD

GOODLAND FORECAST AREA HOURLY WEATHER ROUNDUP
NATIONAL WEATHER SERVICE GOODLAND KS
1000 PM MDT SUN MAY 01 2016

...OFFICIAL OBSERVATIONS...

CITY           SKY/WX    TMP DP  RH WIND       PRES   REMARKS
GOODLAND KS    CLEAR     35  31  85 NW9       30.25R
HILL CITY KS   CLOUDY    40  38  93 NW5       30.24R
IMPERIAL NEB   CLEAR     41  31  67 NW6       30.25S
MCCOOK NEB     PTCLDY    41  36  82 SW6       30.22R
AKRON CO       CLOUDY    31  24  75 W3        30.28R
BURLINGTON CO  CLEAR     33  26  75 NW7       30.27R
LIMON CO       CLOUDY    27  25  92 N6        30.29R
$$

...UNOFFICIAL OBSERVATIONS...

CITY           SKY/WX    TMP DP  RH WIND       PRES   REMARKS
COLBY KS       CLOUDY    43  43 100 NW3       30.25R
LENORA KS        N/A     41  32  70 MISG        N/A
NORTON KS      CLEAR     39  36  87 W5        30.22R
SHARON SPRINGS   N/A     39  34  83 NW12        N/A
TRIBUNE KS     CLOUDY    43  34  70 NW9       30.28R
KIT CARSON CO    N/A     34  28  79 MISG        N/A
YUMA CO          N/A     33  29  84 CALM        N/A
$$




USA.gov is the U.S. government's official web portal to all federal, state and local government web resources and services.